Regional Weather Roundup
Issued by NWS

Home | Current Version | Previous Version | Graphics & Text | Print | Product List | Glossary On
Versions: 1 2 3 4 5 6 7 8 9 10 11 12 13 14 15 16 17 18 19 20 21 22 23 24 25 26 27 28 29 30 31 32 33 34 35 36 37 38 39 40 41 42 43 44 45 46 47 48 49 50
000
ASUS43 KLOT 152106
RWRIL

ILLINOIS REGIONAL WEATHER ROUNDUP
NATIONAL WEATHER SERVICE CHICAGO/ROMEOVILLE IL
400 PM CDT TUE APR 15 2014

NOTE: "FAIR" INDICATES FEW OR NO CLOUDS BELOW 12,000 FEET WITH NO
SIGNIFICANT WEATHER AND/OR OBSTRUCTIONS TO VISIBILITY.

* THESE STATIONS ARE NOT UNDER NWS QUALITY CONTROL. THEY ALSO MAY NOT
  REPORT WEATHER SUCH AS PRECIPITATION OR FOG.

ILZ001-002-007-009-015-016-024-152200-
NORTHWEST ILLINOIS

CITY           SKY/WX    TMP DP  RH WIND       PRES   REMARKS
MOLINE         SUNNY     42  11  28 W10G21    30.14F
STERLING*      PTSUNNY   41  19  42 CALM      30.13F
SAVANNA*       MOSUNNY   40  13  33 W7        30.13F
$$

ILZ003-004-008-010-011-017-018-152200-
NORTH CENTRAL ILLINOIS

CITY           SKY/WX    TMP DP  RH WIND       PRES   REMARKS
ROCKFORD       PTSUNNY   38  14  37 CALM      30.14F
FREEPORT*      CLOUDY    37  16  42 NW3       30.14F
DE KALB*       PTSUNNY   33  18  54 W5G12     30.14F WCI  29
$$

ILZ005-006-012>014-019>023-152200-
NORTHEAST ILLINOIS

CITY           SKY/WX    TMP DP  RH WIND       PRES   REMARKS
CHICAGO-OHARE  CLOUDY    35  14  42 NW7       30.14F WCI  29
CHICAGO-MIDWAY PTSUNNY   36  14  40 NW13G18   30.15S WCI  27
AURORA         PTSUNNY   36  20  52 W8        30.15F WCI  30
LANSING*       CLOUDY    34  15  47 CALM      30.16F
WAUKEGAN       CLOUDY    30  18  60 E10       30.13S WCI  21
DUPAGE AIRPORT CLOUDY    35  20  54 NW10      30.13F WCI  27
KANKAKEE*      CLOUDY    37  17  44 NW13      30.17S WCI  28
WHEELING       CLOUDY    35  15  44 N5        30.16S WCI  31
MORRIS*        PTSUNNY   37  17  43 NW9       30.16S WCI  31
NORTHERLY ISL    N/A     31  17  56 E7          N/A  WCI  24
$$

LMZ740>746-152200-
SOUTHERN LAKE MICHIGAN

STATION/POSITION SKY/WX   TEMP    WIND        PRES    VSBY  WAVE
                          AIR SEA DIR/SP/G                  HT/PER
                          (F)     (DEG/KT/KT) (MB)    (MI)  (FT/S)
WAUKEGAN HARBOR            29     120/ 12/ 15 1022.4R
HARRISON CRIB              29     100/  9/ 11   N/A
BURNHAM HARBOR             32     120/  6/  9   N/A
CALUMET HARBOR             31      80/  8/ 10 1022.2F
MICHIGAN CITY              30      10/  7/ 10   N/A
$$

ILZ025>027-034>036-040-047-049-050-058-095>099-152200-
WEST-CENTRAL ILLINOIS

CITY           SKY/WX    TMP DP  RH WIND       PRES   REMARKS
QUINCY         MOSUNNY   46  19  34 NW10      30.15F
GALESBURG*     SUNNY     41  20  41 W9G18     30.15F
MACOMB*        MOSUNNY   43  24  46 W8G20     30.18F
JACKSONVILLE*  SUNNY     45  20  36 W18       30.18F
PITTSFIELD*    SUNNY     45  19  34 W3        30.18F
$$

ILZ028>032-037-038-041>044-048-051>054-059>061-152200-
CENTRAL ILLINOIS

CITY           SKY/WX    TMP DP  RH WIND       PRES   REMARKS
PONTIAC        PTSUNNY   39  23  52 NW13      30.17S WCI  32
BLOOMINGTON    PTSUNNY   39  16  39 NW14G20   30.17S WCI  31
DECATUR        PTSUNNY   41  17  38 NW14      30.18S
PEORIA         MOSUNNY   42  16  34 NW9       30.16F
LACON*         MOSUNNY   41  19  41 W15       30.15F
SPRINGFIELD    MOSUNNY   45  18  34 W13G22    30.17F
TAYLORVILLE    CLOUDY    41  23  48 NW9       30.18F
$$

ILZ033-039-045-046-055>057-062-063-152200-
EAST-CENTRAL ILLINOIS

CITY           SKY/WX    TMP DP  RH WIND       PRES   REMARKS
CHAMPAIGN      CLOUDY    41  22  46 W10G20    30.17S
RANTOUL*       MOSUNNY   39  24  53 NW3       30.18S
MATTOON        PTSUNNY   40  19  43 NW13      30.18R
PARIS*         CLOUDY    40  22  49 W8G17     30.19S
$$

ILZ079-100>102-152200-
SOUTHWEST ILLINOIS

CITY           SKY/WX    TMP DP  RH WIND       PRES   REMARKS
BELLEVILLE     SUNNY     47  17  31 VRB6G17   30.20F
CAHOKIA*       SUNNY     47  26  44 NW16G22   30.20F
SPARTA*        SUNNY     45  21  39 NW8       30.21F
$$

ILZ064>066-069>071-074>076-080>082-084>086-088>090-092>094-152200-
SOUTH-CENTRAL ILLINOIS

CITY           SKY/WX    TMP DP  RH WIND       PRES   REMARKS
CARBONDALE     MOSUNNY   47  22  37 NW12G17   30.21F
CAIRO*         SUNNY     51  24  34 NW8G16    30.21S
MARION         MOSUNNY   46  21  36 NW9       30.22S
MT. VERNON     MOSUNNY   45  18  33 N10G16    30.21F
CENTRALIA*       N/A     43  21  41 NW10G18   30.20F
SALEM*         MOSUNNY   44  24  45 N12       30.20F
METROPOLIS*    SUNNY     47  17  30 N9G17     30.20S
$$

ILZ067-068-072-073-078-083-087-091-152200-
SOUTHEAST ILLINOIS

CITY           SKY/WX    TMP DP  RH WIND       PRES   REMARKS
FLORA*         MOSUNNY   41  21  44 NW10G16   30.21R
FAIRFIELD*     MOSUNNY   43  21  42 N6        30.20F
HARRISBURG*    MOSUNNY   46  22  39 NW9G21    30.22S
ROBINSON*      CLOUDY    43  25  49 NW10      30.21R
CARMI*         PTSUNNY   44  26  48 NW9G18    30.20S
$$

ABBREVIATIONS USED IN REMARKS
   TC - TEMPERATURE IN CELSIUS
  WCI - WIND CHILL INDEX
   HX - HEAT INDEX
  VSB - VISIBILITY
$$




USA.gov is the U.S. government's official web portal to all federal, state and local government web resources and services.